Location: Czu?�w
(50.1404°N, 18.9919°E)
Time: 03:29:16
(UTC+00:00)

Cosmos 2315 Rocket - Pass Details

Date: 27 October 2020
Orbit: 967 x 1001 km, 82.9° (Epoch: 27 November)

Event Time Altitude Azimuth Distance (km) Brightness Sun altitude
Rises 18:07:12 0° 184° (S) 3,652 6.9 -25.9°
Reaches altitude 10° 18:09:42 10° 184° (S) 2,706 6.2 -26.3°
Maximum altitude 18:15:53 82° 97° (E) 982 3.8 -27.2°
Drops below altitude 10° 18:22:07 10° 11° (N) 2,720 6.3 -28.2°
Sets 18:24:38 0° 11° (N) 3,672 7.1 -28.6°
